    Orbital elements:
    2018 EJ4                                            PHA, Earth MOID = 0.0126 AU
    Epoch 2019 Apr. 27.0 TT = JDT 2458600.5                 MPC
    M 219.13879              (2000.0)            P               Q
    n   0.69938533     Peri.  188.22566     -0.06636216     +0.98207144
    a   1.2569704      Node    78.10103     -0.90489156     +0.01527606
    e   0.1834085      Incl.   10.38819     -0.42043706     -0.18788916
    P   1.41           H   21.4           G   0.15           U   0
    Residuals in seconds of arc
    111130 F51  0.0   0.1+    180509 A17  0.1+  0.1-    180530 Z21  0.0   0.0
    111222 F51  0.3+  0.8-    180509 I52  0.3+  0.2-    180531 T08  0.0   0.0
    111223 F51  0.8+  0.5-    180509 I52  0.0   0.1-    180531 T08  0.2-  0.0
    141203 F51  0.1+  0.3-    180509 I52  0.2-  0.0     180531 T08  0.2-  0.0
    141203 F51  0.2-  0.3-    180509 I52  0.2+  0.0     180531 T08  0.0   0.1-
    141203 F51  0.1-  0.2-    180510 I52  0.2-  0.2+    180531 C77  0.2+  0.0
    141203 F51  0.0   0.1-    180510 I52  0.4+  0.1+    180531 C77  0.1+  0.1+
    171228 F51  0.3+  0.0     180510 I52  0.1+  0.3-    180531 C77  0.2-  0.0
    180313 G96  0.0   0.0     180510 I52  0.1+  0.0     180531 K38  0.2-  0.1-
    180313 G96  0.3+  0.3+    180510 T05  0.1+  0.5-    180531 K38  0.0   0.2-
    180313 G96  0.1+  0.3+    180510 T05  0.0   0.3-    180531 K38  0.2-  0.0
    180313 G96  0.1+  0.3-    180510 T05  0.1-  0.2-    180601 A48 (1.1-  1.8-)
    180314 734  0.1-  0.3+    180510 T05  0.3+  0.1-    180601 A48  0.1-  0.3+
    180314 734  0.2+  0.0     180511 I52  0.4-  0.2-    180601 A48  0.1-  0.0
    180314 734  0.0   0.4-    180511 I52  0.0   0.2-    180601 A48  0.3-  0.2+
    180315 033  0.0   0.1+    180511 I52  0.1+  0.0     180601 C36  0.3+  0.7-
    180315 033  0.0   0.0     180511 I52  0.1+  0.0     180601 C36  1.0-  1.2-
    180315 033  0.1+  0.0     180512 T08  1.0-  0.1-    180601 C36 (0.7-  3.0-)
    180315 033  0.2+  0.0     180512 T08  1.3-  1.2-    180601 595  0.5+  0.1-
    180315 H21  0.2-  0.1-    180512 T08  0.3+  0.1+    180601 595  0.4+  0.2-
    180315 H21  0.4-  0.2-    180512 T08  0.1-  0.3-    180601 595  0.2+  0.2-
    180315 H21  0.3-  0.0     180513 U63  0.2+  0.1+    180601 595  0.5+  0.4-
    180316 I52  0.7-  0.5-    180513 U63  0.2+  0.0     180602 T05  0.0   0.0
    180316 I52  0.3-  0.1-    180513 U63  0.0   0.0     180602 T05  0.0   0.1-
    180316 I52  0.2+  0.3-    180513 U63  0.0   0.0     180602 T05  0.2+  0.5+
    180316 I52  0.3-  0.1+    180513 703  0.1-  0.0     180602 T05  0.0   0.0
    180316 G96  0.1-  0.2-    180513 703  0.1+  0.2+    180602 104  0.4+  0.1+
    180316 G96  0.1-  0.3-    180513 703  0.0   0.1+    180602 104  0.3+  0.1+
    180316 G96  0.0   0.1+    180513 703  0.1-  0.1-    180602 104  0.3-  0.1-
    180318 I52  0.5-  0.1+    180514 W71  0.4-  0.0     180602 J95  0.1-  0.1+
    180318 I52  0.8-  0.2-    180514 W71  0.3-  0.0     180602 J95  0.2-  0.0
    180318 I52  0.3-  0.1+    180514 W71  0.3+  0.2-    180602 J95  0.1-  0.1+
    180318 I52  0.4+  0.1-    180514 W71  0.4-  0.2-    180602 Z80  0.2-  0.5+
    180319 I52  0.5+  0.0     180514 W71  0.7-  0.5-    180602 J95  0.1-  0.0
    180319 I52  0.5-  0.0     180516 T08  0.5+  0.0     180602 Z80  1.1-  0.4+
    180319 I52  0.6-  0.1+    180516 T08  0.3-  0.3+    180602 Z80  0.7+  0.4+
    180319 I52  0.1-  0.4-    180516 T08  0.8-  0.4-    180602 Z80  0.4-  0.1+
    180320 I52  0.3+  0.1+    180516 T08  0.5+  0.5-    180602 Z80  0.1-  0.5+
    180320 I52  0.1+  0.1+    180517 A17  0.1-  0.0     180602 Z80  0.4-  0.1+
    180320 711  0.2+  0.1-    180517 A17  0.0   0.2-    180602 Z80  0.6+  0.2+
    180320 711  0.1+  0.1+    180517 A17  0.1+  0.0     180602 Z80  0.0   0.3+
    180320 711  0.1+  0.1+    180517 G40  0.2-  0.0     180602 Z80  0.2+  0.3+
    180321 I52  0.1+  0.2-    180517 G40  0.0   0.1+    180602 Z80  0.1-  0.3+
    180321 I52  0.1+  0.1-    180518 G40  0.2+  0.0     180603 W34  0.0   0.5-
    180321 I52  0.0   0.1-    180518 G40  0.1-  0.0     180603 W34  0.0   0.3-
    180321 I52  0.0   0.2-    180518 W71  0.0   0.0     180603 W34  0.1+  0.1-
    180323 I52  0.1+  0.2+    180518 W71  0.2-  0.2-    180603 W34  0.1+  0.2-
    180323 I52  0.0   0.0     180518 W71  0.2-  0.4+    180603 W71  0.4-  0.3-
    180324 291  0.2+  0.4+    180518 W71  0.3-  0.2+    180603 W71  0.4-  0.4-
    180324 291  0.4+  0.2+    180518 703  0.3-  0.1-    180603 W71  0.3-  0.5-
    180324 291  0.4+  0.1+    180518 703  0.3-  0.0     180603 W71  0.1-  0.2-
    180327 204  0.2+  0.1-    180518 703  0.1+  0.0     180603 W71  0.5-  0.4-
    180327 204  0.4+  0.1+    180518 703  0.1-  0.4-    180603 U63  0.0   0.1-
    180327 204  0.2+  0.2-    180518 T05  0.4-  0.1-    180603 U63  0.0   0.1-
    180327 I52  0.0   0.2-    180518 T05  0.1-  0.1-    180603 703  0.0   0.0
    180327 I52  0.0   0.3-    180518 T05  0.3-  0.1-    180603 U63  0.1-  0.2-
    180327 I52  0.2+  0.5-    180518 T05  0.0   0.1+    180603 703  0.0   0.1-
    180327 I52  0.2-  0.2-    180520 G96  0.0   0.0     180603 703  0.1-  0.2-
    180327 291  0.1+  0.0     180520 G96  0.0   0.0     180603 U63  0.0   0.1+
    180327 291  0.0   0.0     180520 G96  0.0   0.0     180603 703  0.1+  0.1+
    180327 291  0.3+  0.1+    180520 G96  0.0   0.0     180603 U63  0.0   0.1+
    180329 I52  0.2-  0.5-    180520 T08  0.2-  0.4+    180603 U63  0.1+  0.1+
    180329 I52  0.0   0.4-    180520 T08  0.2+  0.3-    180603 U63  0.0   0.1-
    180329 I52  0.3-  0.4-    180520 T08  0.2-  0.2+    180603 U63  0.2+  0.1+
    180329 I52  0.0   0.3-    180520 T08  0.1-  0.2+    180603 U63  0.2+  0.2+
    180330 T12  0.0   0.1-    180521 W71  0.2-  0.3-    180603 U63  0.2+  0.4+
    180330 T12  0.1+  0.1-    180521 W71  0.4-  0.2-    180603 U63  0.1+  0.4+
    180330 T12  0.0   0.1-    180521 W71  0.5-  0.1-    180604 V16  0.4+  0.0
    180404 I52  0.2-  0.2+    180521 W71  0.2-  0.2-    180604 V16  0.2+  0.3+
    180404 I52  0.1-  0.4+    180521 W71  0.2+  0.1-    180604 V16  0.3+  0.1-
    180404 I52  0.2-  0.0     180521 I52  0.0   0.1-    180604 V16  0.4+  0.2+
    180404 I52  0.1-  0.2+    180521 I52  0.2-  0.0     180604 T08  0.1-  0.1-
    180405 I52  0.2-  0.9+    180521 I52  0.1-  0.1-    180604 T08  0.0   0.0
    180405 I52  0.1-  0.4-    180521 I52  0.1-  0.0     180604 T08  0.0   0.0
    180405 I52  0.2-  0.2-    180521 K87  0.1-  0.0     180604 246  0.4-  0.2+
    180405 291  0.3+  0.4+    180521 K87  0.2-  0.1+    180604 246  0.3-  0.1+
    180405 291  0.2+  0.1+    180521 K87  0.1-  0.1+    180604 246  0.3-  0.1-
    180405 291  0.1+  0.2+    180522 G40  0.1-  0.2-    180604 246  0.2-  0.0
    180406 246  0.2-  1.1-    180522 G40  0.1+  0.1-    180604 246  0.3-  0.1+
    180406 246  0.5-  0.8+    180522 G40  0.0   0.1-    180604 246  0.2-  0.1-
    180406 246  0.6+  0.8-    180522 G40  0.1-  0.1-    180604 246  0.2-  0.1+
    180408 I52  0.3-  0.2+    180522 G40  0.2-  0.1+    180604 246  0.2-  0.2+
    180408 I52  0.4+  0.0     180522 703  0.1-  0.1+    180604 246  0.3-  0.1+
    180408 I52  0.0   0.1+    180522 703  0.1-  0.2-    180604 247 (0.8+  5.7+)
    180408 I52  0.1+  0.2-    180522 703  0.2-  0.0     180604 247 (0.4+  5.6+)
    180408 246  0.3+  0.0     180522 703  0.1+  0.1-    180604 247 (0.6+  5.7+)
    180408 246  0.9+  0.7+    180522 F51  0.0   0.0     180604 247 (0.6+  5.9+)
    180408 246  0.5-  0.0     180522 F51  0.0   0.0     180604 247 (0.7+  5.9+)
    180408 246  0.1+  0.4-    180522 F51  0.0   0.1-    180604 G34  0.6+  0.2+
    180408 246  0.0   0.3-    180523 T04  0.0   0.1-    180604 G34  0.3+  0.2+
    180408 246  0.5-  0.8-    180523 T04  0.1+  0.2-    180604 G34  0.3+  0.1+
    180409 I52  0.1-  0.2-    180523 T04  0.0   0.1-    180604 G34  0.5+  0.4+
    180409 I52  0.2-  0.1-    180523 T04  0.0   0.1-    180604 G34  0.6+  0.3+
    180410 I52 (0.1-  2.5-)   180523 T04  0.1+  0.1-    180605 247 (0.7+  5.0+)
    180410 I52  0.1+  0.3-    180523 T04  0.1-  0.2-    180605 247 (0.4+  5.2+)
    180410 I52  0.1-  0.2+    180523 T04  0.0   0.1+    180605 L04  0.1+  0.2-
    180414 I41  0.1-  0.1+    180523 T04  0.1+  0.1-    180605 247 (0.7+  4.7+)
    180414 I41  0.2+  0.2+    180523 T04  0.0   0.1-    180605 L04  0.1+  0.3-
    180414 I41  0.2-  0.3+    180524 W71  0.2-  0.1-    180605 247 (0.8+  5.3+)
    180414 I41  0.0   0.2-    180524 W71  0.0   0.5+    180605 247 (0.8+  5.2+)
    180414 I41  0.1-  0.0     180524 W71  0.5-  0.3-    180605 L04  0.1+  0.2-
    180414 I41  0.2-  0.2-    180524 W71  0.2+  0.2-    180606 J95  0.0   0.0
    180414 I41  0.1+  0.1+    180524 W71  0.2-  0.3-    180606 J95  0.0   0.2+
    180414 I41  0.2-  0.1-    180524 I52  0.1+  0.0     180606 J95  0.1+  0.1+
    180414 I41  0.0   0.2+    180524 I52  0.0   0.0     180606 I52  0.0   0.1-
    180415 I52  0.0   0.2-    180524 I52  0.1-  0.1+    180606 I52  0.0   0.1+
    180415 I52  0.0   0.1-    180524 I52  0.0   0.0     180606 I52  0.0   0.2+
    180415 I52  0.2-  0.0     180524 T08  0.1+  0.0     180606 I52  0.1+  0.1+
    180415 I52  0.0   0.0     180524 T08  0.2+  0.2-    180606 T05  0.1+  0.0
    180417 H45  1.0-  0.5-    180524 T08  0.1-  0.1+    180606 T05  0.2+  0.1+
    180417 H45  0.9-  0.5-    180524 T08  0.0   0.1+    180606 T05  0.1+  0.1+
    180417 H45  0.5-  0.2+    180524 T08  0.2-  0.2+    180606 T05  0.1+  0.0
    180417 H45  0.4-  0.3-    180524 T08  0.1-  0.0     180606 Z80  0.0   0.2-
    180417 H45  0.4-  0.2-    180524 T08  0.1-  0.1+    180606 Z80  0.2-  0.4-
    180417 H45  0.3-  0.0     180524 T08  0.0   0.1+    180607 Z80  0.3+  0.3-
    180417 A17  0.1-  0.2+    180524 K38  0.0   0.3-    180607 Z80  0.1-  0.1-
    180418 A17  0.2+  0.1-    180524 K38  0.1+  0.1+    180607 Z80  0.0   0.4-
    180418 A17  0.0   0.4+    180524 K38  0.0   0.0     180607 Z80  0.1+  0.2-
    180418 I41  0.2+  0.1+    180525 W71  0.8-  1.1-    180607 Z80  0.2-  0.4-
    180418 I41  0.5+  0.3-    180525 W71  0.4+  0.1-    180607 Z80  0.6+  0.0
    180418 I41  0.1+  0.1+    180525 W71  0.9-  0.3+    180607 Z80  0.2-  0.1-
    180418 I41  0.0   0.0     180525 W71  0.9-  0.0     180607 Z80  0.5+  0.3-
    180418 I41  0.2+  0.0     180525 W71  0.2+  1.1-    180607 703  0.2-  1.2-
    180418 G96  0.2+  0.1-    180525 703  0.1-  0.3-    180607 703  0.1-  0.7-
    180418 G96  0.0   0.0     180525 703  0.0   0.0     180607 703  0.0   0.0
    180418 I41  0.3+  0.1-    180525 703  0.1+  0.1-    180607 703  0.1-  0.4-
    180418 I41  0.2+  0.1-    180525 703  0.1-  0.0     180607 089  0.2-  0.3-
    180418 G96  0.1-  0.1-    180525 T04  0.1+  0.1+    180607 089  0.1-  0.2-
    180418 G96  0.1-  0.2-    180525 T04  0.3-  0.3+    180607 089  0.1-  0.2+
    180418 I41  0.3+  0.1-    180525 T04  0.0   0.3-    180607 089  0.0   0.2+
    180418 I41  0.0   0.0     180525 T04  0.2+  0.0     180607 089  0.2+  0.0
    180419 703  0.2+  1.0+    180525 T04  0.2+  0.1+    180607 089  0.2-  0.1-
    180419 703  0.6+  1.4+    180525 T04  0.3+  0.1+    180607 089  0.2-  0.0
    180419 703  1.0+  0.4+    180525 T04  0.4+  0.1+    180607 089  0.0   0.0
    180419 703  0.9+  0.5-    180525 T04  0.4+  0.0     180607 089  0.2-  0.0
    180419 K38  0.1+  0.1+    180525 K38  0.1+  0.0     180608 K63  0.1-  0.2-
    180419 K38  0.3-  0.1-    180525 K38  0.3-  0.0     180608 K63  0.0   0.1-
    180420 K38  0.2-  0.3+    180525 K38  0.1-  0.1-    180608 K63  0.0   0.3+
    180421 I52  0.1+  0.1-    180525 118 (0.7-  2.1-)   180608 Z80  0.2+  0.1-
    180421 I52  0.1+  0.1-    180526 118 (0.6-  2.1-)   180608 Z80  0.0   0.1-
    180421 I52  0.0   0.1-    180526 118 (0.6-  2.3-)   180608 Z80  0.2-  0.5+
    180421 I52  0.0   0.0     180526 104  0.1-  0.1-    180608 Z80  0.2-  0.1+
    180423 I52  0.0   0.2-    180526 104  0.0   0.0     180608 Z80  0.1-  0.2+
    180423 I52  0.4+  0.0     180526 104  0.0   0.1-    180608 Z80  0.1-  0.0
    180423 I52  0.1+  0.4+    180527 291  0.0   0.3+    180608 Z80  0.5-  0.1-
    180423 I52  0.2+  0.3-    180527 291  0.1-  0.2+    180608 Z80  0.9+  0.2-
    180424 291  0.3+  0.1+    180527 291  0.1-  0.2+    180608 Z80  0.2+  0.2+
    180424 291  0.2+  0.2+    180528 695  0.1+  0.1+    180608 Z80  0.6+  0.2+
    180424 291  0.3+  0.1+    180528 695  0.0   0.3+    180608 Z80  0.7-  0.2+
    180426 I52  0.3+  0.5+    180528 695  0.2+  0.3+    180608 Z80  0.1+  0.2-
    180426 I52  0.5-  0.4-    180528 T08  0.2+  0.1-    180609 A53  0.5+  0.0
    180426 I52  0.5-  0.1-    180528 T08  0.2-  0.1-    180609 A53  0.2+  0.3+
    180426 I52  0.9-  0.3-    180528 T08  0.1+  0.3-    180609 A53  0.0   0.1+
    180426 291  0.0   0.3+    180528 T08  0.0   0.1-    180609 A53  0.3+  0.3+
    180426 291  0.2+  0.9+    180528 089  0.3+  0.1+    180609 A53  0.0   0.1+
    180426 291  0.5+  0.1-    180528 089  0.1-  0.0     180609 A53  0.3+  0.4+
    180427 I52  0.2-  0.2+    180528 089  0.2+  0.1+    180609 A53  0.3+  0.2+
    180427 I52  0.5-  0.2-    180528 089  0.2+  0.5+    180609 A53  0.8+  0.6+
    180427 I52  0.2+  0.1+    180528 089  0.1+  0.3+    180609 A53  0.3+  0.3+
    180427 I52  0.5-  0.5-    180528 089  0.0   0.4+    180609 A53  0.2+  0.3+
    180429 695  0.1-  0.3+    180528 089  0.1+  0.5+    180609 A48  0.1+  0.4+
    180429 695  0.1+  0.3+    180528 089  0.0   0.0     180609 A48  0.0   0.5+
    180429 695  0.0   0.3+    180528 089  0.0   0.4+    180609 A48  0.2+  0.2+
    180504 G96  0.0   0.0     180528 089  0.0   0.0     180609 A48  0.1+  0.1-
    180504 G96  0.0   0.2-    180529 695  0.4+  0.1+    180610 Y00  0.7-  0.9-
    180504 G96  0.0   0.1-    180529 695  0.3+  0.1+    180610 Y00  0.8-  0.7-
    180504 G96  0.0   0.3-    180529 695  0.4+  0.1+    180610 Y00  0.8-  0.6-
    180504 A17  0.1+  0.3-    180529 G40  0.1+  0.1-    180610 T08  0.0   0.3-
    180504 A17  0.1-  0.3-    180529 G40  0.0   0.3-    180610 T08  0.0   0.1+
    180504 A17  0.2-  0.2-    180529 G40  0.2+  0.1+    180610 T08  0.2+  0.2-
    180506 A17  0.2+  0.1-    180530 Z21  0.1-  0.0     180610 T08  0.1+  0.2-
    180506 A17  0.0   0.0     180530 Z21  0.1-  0.2-    181028 V06  0.5+  0.5+
    180506 A17  0.0   0.4-    180530 Z21  0.1-  0.0     181028 V06  0.2+  0.3+
    180508 A17  0.2+  0.0     180530 Z21  0.1+  0.1-    181028 V06  0.1+  0.2+
    180508 A17  0.1+  0.0     180530 Z21  0.0   0.1-    181028 V06  0.5+  0.4+
    
